TimeEST,TemperatureF,Dew PointF,Humidity,Sea Level PressureIn,VisibilityMPH,Wind Direction,Wind SpeedMPH,Gust SpeedMPH,PrecipitationIn,Events,Conditions,WindDirDegrees,DateUTC
12:54 AM,32.0,16.0,52,29.98,10.0,SSE,10.4,-,N/A,,Clear,160,2013-02-19 05:54:00
1:54 AM,33.1,17.1,52,29.97,10.0,South,6.9,-,N/A,,Clear,190,2013-02-19 06:54:00
2:54 AM,37.0,19.0,48,29.91,10.0,South,11.5,17.3,N/A,,Partly Cloudy,180,2013-02-19 07:54:00
3:54 AM,37.9,19.9,48,29.86,10.0,South,15.0,-,N/A,,Mostly Cloudy,180,2013-02-19 08:54:00
4:54 AM,37.0,19.9,50,29.85,10.0,South,11.5,-,N/A,,Overcast,190,2013-02-19 09:54:00
5:11 AM,33.8,24.8,70,29.82,2.0,SSW,9.2,-,0.03,Snow,Light Snow,200,2013-02-19 10:11:00
5:37 AM,33.8,28.4,81,29.79,5.0,South,6.9,-,0.05,Snow,Light Snow,170,2013-02-19 10:37:00
5:45 AM,33.8,26.6,75,29.78,8.0,SE,6.9,-,0.05,Snow,Light Snow,140,2013-02-19 10:45:00
5:54 AM,34.0,26.1,73,29.83,9.0,SE,8.1,-,0.05,,Overcast,140,2013-02-19 10:54:00
6:54 AM,36.0,25.0,64,29.81,9.0,South,17.3,26.5,0.00,Snow,Light Snow,170,2013-02-19 11:54:00
7:01 AM,35.6,24.8,65,29.75,6.0,South,16.1,25.3,0.00,Snow,Light Snow,180,2013-02-19 12:01:00
7:17 AM,33.8,26.6,75,29.74,2.0,South,19.6,24.2,0.00,Snow,Light Snow,170,2013-02-19 12:17:00
7:43 AM,32.0,30.2,93,29.73,0.8,South,15.0,-,0.00,Snow,Light Snow,170,2013-02-19 12:43:00
7:54 AM,33.1,30.0,89,29.79,1.8,South,18.4,-,0.00,Snow,Light Snow,170,2013-02-19 12:54:00
7:58 AM,33.8,30.2,87,29.73,3.0,South,16.1,-,0.00,Snow,Light Snow,170,2013-02-19 12:58:00
8:54 AM,33.1,30.0,89,29.77,10.0,SSE,16.1,-,0.01,Rain,Light Rain,160,2013-02-19 13:54:00
9:29 AM,33.8,32.0,93,29.70,10.0,South,12.7,-,0.00,Rain,Light Rain,180,2013-02-19 14:29:00
9:54 AM,34.0,32.0,92,29.76,9.0,South,12.7,-,0.00,Rain,Light Rain,180,2013-02-19 14:54:00
10:02 AM,33.8,32.0,93,29.69,6.0,South,10.4,-,0.01,Rain,Light Rain,180,2013-02-19 15:02:00
10:39 AM,35.6,33.8,93,29.69,6.0,SSW,11.5,20.7,0.02,Rain,Light Rain,200,2013-02-19 15:39:00
10:54 AM,36.0,34.0,93,29.73,8.0,SSW,12.7,21.9,0.02,Rain,Light Rain,200,2013-02-19 15:54:00
11:02 AM,35.6,33.8,93,29.68,8.0,SSW,10.4,-,0.00,Rain,Light Rain,210,2013-02-19 16:02:00
11:54 AM,37.0,34.0,89,29.70,10.0,SSW,12.7,21.9,0.00,Rain,Light Rain,200,2013-02-19 16:54:00
12:50 PM,37.4,33.8,87,29.62,10.0,SSW,16.1,27.6,0.01,Rain,Light Rain,210,2013-02-19 17:50:00
1:54 PM,39.0,33.1,79,29.63,10.0,SW,18.4,26.5,0.00,Rain,Light Rain,220,2013-02-19 18:54:00
2:00 PM,37.4,32.0,81,29.59,2.5,West,20.7,26.5,0.02,Rain,Heavy Rain,270,2013-02-19 19:00:00
2:06 PM,33.8,30.2,87,29.60,1.0,West,16.1,26.5,0.05,Snow,Light Snow,270,2013-02-19 19:06:00
2:08 PM,33.8,30.2,87,29.60,1.0,West,16.1,26.5,0.05,Snow,Light Snow,260,2013-02-19 19:08:00
2:17 PM,33.8,32.0,93,29.60,3.0,West,19.6,25.3,0.05,Snow,Light Snow,270,2013-02-19 19:17:00
2:49 PM,33.8,30.2,87,29.62,10.0,WSW,23.0,34.5,0.06,,Overcast,250,2013-02-19 19:49:00
2:54 PM,33.1,30.0,89,29.68,10.0,WSW,24.2,35.7,0.06,,Overcast,250,2013-02-19 19:54:00
3:01 PM,33.8,30.2,87,29.63,10.0,WSW,18.4,35.7,N/A,,Overcast,250,2013-02-19 20:01:00
3:34 PM,32.0,26.6,80,29.65,10.0,West,21.9,31.1,0.00,,Overcast,260,2013-02-19 20:34:00
3:43 PM,32.0,24.8,75,29.65,10.0,West,18.4,27.6,0.00,,Overcast,260,2013-02-19 20:43:00
3:54 PM,32.0,25.0,75,29.72,10.0,West,17.3,24.2,0.00,,Overcast,260,2013-02-19 20:54:00
4:42 PM,30.2,21.2,69,29.69,10.0,West,16.1,29.9,0.00,,Overcast,270,2013-02-19 21:42:00
4:54 PM,30.0,19.9,66,29.75,10.0,West,17.3,29.9,0.00,,Overcast,260,2013-02-19 21:54:00
5:21 PM,28.4,21.2,74,29.70,6.0,West,12.7,25.3,0.00,Snow,Light Snow,280,2013-02-19 22:21:00
5:54 PM,28.0,21.9,78,29.79,3.0,West,11.5,18.4,0.00,Snow,Light Snow,270,2013-02-19 22:54:00
6:09 PM,26.6,23.0,86,29.74,1.8,West,18.4,25.3,0.00,Snow,Light Snow,260,2013-02-19 23:09:00
6:22 PM,26.6,24.8,93,29.74,1.0,West,13.8,25.3,0.00,Snow,Light Snow,270,2013-02-19 23:22:00
6:29 PM,26.6,24.8,93,29.74,3.0,West,13.8,-,0.00,Snow,Light Snow,270,2013-02-19 23:29:00
7:44 PM,24.8,19.4,80,29.78,1.8,West,18.4,24.2,0.00,Snow,Light Snow,270,2013-02-20 00:44:00
7:47 PM,24.8,19.4,80,29.77,3.0,West,17.3,24.2,0.00,Snow,Light Snow,270,2013-02-20 00:47:00
7:54 PM,24.1,18.0,77,29.85,6.0,West,17.3,25.3,0.00,Snow,Light Snow,270,2013-02-20 00:54:00
8:02 PM,24.8,15.8,69,29.77,8.0,West,18.4,26.5,N/A,,Overcast,260,2013-02-20 01:02:00
8:25 PM,24.8,15.8,69,29.77,10.0,West,15.0,24.2,N/A,,Overcast,270,2013-02-20 01:25:00
8:40 PM,24.8,17.6,74,29.77,1.8,West,15.0,-,0.00,Snow,Light Snow,270,2013-02-20 01:40:00
8:54 PM,23.0,18.0,81,29.86,1.5,West,13.8,21.9,0.00,Snow,Light Snow,280,2013-02-20 01:54:00
9:07 PM,21.2,17.6,86,29.78,0.8,West,17.3,25.3,0.00,Snow,Light Snow,260,2013-02-20 02:07:00
9:15 PM,21.2,17.6,86,29.78,0.8,West,17.3,26.5,0.00,Snow,Light Snow,260,2013-02-20 02:15:00
9:27 PM,21.2,19.4,93,29.78,0.8,West,15.0,28.8,0.00,Snow,Light Snow,260,2013-02-20 02:27:00
9:41 PM,21.2,17.6,86,29.78,0.8,West,20.7,32.2,0.00,Snow,Light Snow,260,2013-02-20 02:41:00
9:54 PM,21.0,16.0,81,29.85,0.8,West,23.0,36.8,0.00,Snow,Light Snow,260,2013-02-20 02:54:00
10:03 PM,21.2,15.8,80,29.77,1.5,West,21.9,32.2,0.00,Snow,Light Snow,260,2013-02-20 03:03:00
10:15 PM,21.2,15.8,80,29.78,2.0,West,20.7,29.9,0.00,Snow,Light Snow,260,2013-02-20 03:15:00
10:33 PM,21.2,12.2,68,29.78,1.5,West,24.2,35.7,0.00,Snow,Light Snow,280,2013-02-20 03:33:00
10:50 PM,19.4,12.2,74,29.77,0.5,West,29.9,41.4,0.00,Snow,Snow,280,2013-02-20 03:50:00
10:54 PM,19.9,12.0,71,29.85,1.0,West,26.5,39.1,0.00,Snow,Light Snow,270,2013-02-20 03:54:00
11:13 PM,19.4,12.2,74,29.76,0.8,West,24.2,44.9,0.00,Snow,Light Snow,280,2013-02-20 04:13:00
11:22 PM,19.4,12.2,74,29.75,2.0,West,23.0,34.5,0.00,Snow,Light Snow,280,2013-02-20 04:22:00
11:30 PM,19.4,12.2,74,29.75,1.2,West,27.6,41.4,0.00,Snow,Light Snow,280,2013-02-20 04:30:00
11:54 PM,19.0,14.0,81,29.84,1.0,West,20.7,31.1,0.00,Snow,Light Snow,260,2013-02-20 04:54:00